| time (UTC) | temp F | wind direction | speed MPH | gust MPH | rain 1hr in | rain 24hr in | rain mn in | humidity % | barometer mb |
| 20260507144827 | 58 | 0.0 | 0.0 | 0.00 | 0.00 | 0.00 | 67 | 1003.4 | |
| 20260507144329 | 57 | 0.0 | 0.0 | 0.00 | 0.00 | 0.00 | 65 | 1003.5 | |
| 20260507143812 | 57 | 0.0 | 0.0 | 0.00 | 0.00 | 0.00 | 65 | 1003.5 | |
| 20260507143324 | 57 | 0.0 | 0.0 | 0.00 | 0.00 | 0.00 | 66 | 1003.5 | |
| 20260507142829 | 56 | 0.0 | 0.0 | 0.00 | 0.00 | 0.00 | 67 | 1003.5 | |
| 20260507142315 | 56 | 0.0 | 0.0 | 0.00 | 0.00 | 0.00 | 70 | 1003.5 | |
| 20260507141825 | 56 | 0.0 | 0.0 | 0.00 | 0.00 | 0.00 | 68 | 1003.5 | |
| 20260507141352 | 56 | 0.0 | 0.0 | 0.00 | 0.00 | 0.00 | 72 | 1003.7 | |
| 20260507140816 | 55 | 0.0 | 0.0 | 0.00 | 0.00 | 0.00 | 71 | 1003.7 | |
| 20260507140327 | 55 | 0.0 | 0.0 | 0.00 | 0.00 | 0.00 | 71 | 1003.7 | |
| 20260507135814 | 54 | 0.0 | 0.0 | 0.00 | 0.00 | 0.00 | 73 | 1003.7 | |
| 20260507135325 | 54 | 0.0 | 0.0 | 0.00 | 0.00 | 0.00 | 74 | 1003.7 | |
| 20260507134830 | 53 | 0.0 | 0.0 | 0.00 | 0.00 | 0.00 | 75 | 1003.7 | |
| 20260507134336 | 53 | 0.0 | 0.0 | 0.00 | 0.00 | 0.00 | 76 | 1003.9 | |
| 20260507133827 | 52 | 0.0 | 0.0 | 0.00 | 0.00 | 0.00 | 76 | 1003.9 | |
| 20260507133313 | 52 | 0.0 | 0.0 | 0.00 | 0.00 | 0.00 | 77 | 1003.9 | |
| 20260507132816 | 52 | 0.0 | 0.0 | 0.00 | 0.00 | 0.00 | 79 | 1004.0 | |
| 20260507132327 | 51 | 0.0 | 0.0 | 0.00 | 0.00 | 0.00 | 80 | 1004.0 | |
| 20260507131852 | 50 | 0.0 | 0.0 | 0.00 | 0.00 | 0.00 | 81 | 1004.0 | |
| 20260507131318 | 50 | 0.0 | 0.0 | 0.00 | 0.00 | 0.00 | 81 | 1004.0 | |
| 20260507130829 | 49 | 0.0 | 0.0 | 0.00 | 0.00 | 0.00 | 81 | 1004.0 | |
| 20260507130335 | 48 | 0.0 | 0.0 | 0.00 | 0.00 | 0.00 | 81 | 1004.0 | |
| 20260507125825 | 48 | 0.0 | 0.0 | 0.00 | 0.00 | 0.00 | 83 | 1003.9 | |
| 20260507125352 | 47 | 0.0 | 0.0 | 0.00 | 0.00 | 0.00 | 84 | 1003.9 | |
| 20260507124815 | 47 | 0.0 | 0.0 | 0.00 | 0.00 | 0.00 | 84 | 1003.9 | |
| 20260507124347 | 46 | 0.0 | 0.0 | 0.00 | 0.00 | 0.00 | 84 | 1003.9 | |
| 20260507123834 | 46 | 0.0 | 0.0 | 0.00 | 0.00 | 0.00 | 85 | 1003.9 | |
| 20260507123319 | 46 | 0.0 | 0.0 | 0.00 | 0.00 | 0.00 | 85 | 1003.9 | |
| 20260507122825 | 45 | 0.0 | 0.0 | 0.00 | 0.00 | 0.00 | 85 | 1003.9 | |
| 20260507122331 | 45 | 0.0 | 0.0 | 0.00 | 0.00 | 0.00 | 85 | 1003.9 | |
| 20260507121817 | 45 | 0.0 | 0.0 | 0.00 | 0.00 | 0.00 | 85 | 1003.9 | |
| 20260507121329 | 44 | 0.0 | 0.0 | 0.00 | 0.00 | 0.00 | 86 | 1003.5 | |
| 20260507120815 | 44 | 0.0 | 0.0 | 0.00 | 0.00 | 0.00 | 86 | 1003.5 | |
| 20260507120321 | 44 | 0.0 | 0.0 | 0.00 | 0.00 | 0.00 | 86 | 1003.5 | |
| 20260507115833 | 43 | 0.0 | 0.0 | 0.00 | 0.00 | 0.00 | 87 | 1003.4 | |
| 20260507115320 | 43 | 0.0 | 0.0 | 0.00 | 0.00 | 0.00 | 87 | 1003.4 | |
| 20260507114825 | 43 | 0.0 | 0.0 | 0.00 | 0.00 | 0.00 | 87 | 1003.4 | |
| 20260507114338 | 43 | 0.0 | 0.0 | 0.00 | 0.00 | 0.00 | 87 | 1003.4 | |
| 20260507113842 | 43 | 0.0 | 0.0 | 0.00 | 0.00 | 0.00 | 86 | 1003.4 | |
| 20260507113327 | 43 | 0.0 | 0.0 | 0.00 | 0.00 | 0.00 | 86 | 1003.4 | |
| 20260507112813 | 43 | 0.0 | 0.0 | 0.00 | 0.00 | 0.00 | 86 | 1003.4 | |
| 20260507112326 | 43 | 0.0 | 0.0 | 0.00 | 0.00 | 0.00 | 87 | 1003.4 | |
| 20260507111812 | 43 | 0.0 | 0.0 | 0.00 | 0.00 | 0.00 | 86 | 1003.4 | |
| 20260507111324 | 43 | 0.0 | 0.0 | 0.00 | 0.00 | 0.00 | 87 | 1003.4 | |
| 20260507110829 | 43 | 0.0 | 0.0 | 0.00 | 0.00 | 0.00 | 87 | 1003.4 | |
| 20260507110316 | 43 | 0.0 | 0.0 | 0.00 | 0.00 | 0.00 | 86 | 1003.4 | |
| 20260507105821 | 43 | 0.0 | 0.0 | 0.00 | 0.00 | 0.00 | 86 | 1003.4 | |
| 20260507105332 | 43 | 0.0 | 0.0 | 0.00 | 0.00 | 0.00 | 86 | 1003.4 | |
| 20260507104816 | 43 | 0.0 | 0.0 | 0.00 | 0.00 | 0.00 | 86 | 1003.4 | |
| 20260507104328 | 44 | 0.0 | 0.0 | 0.00 | 0.00 | 0.00 | 85 | 1003.4 | |
| 20260507103819 | 44 | 0.0 | 0.0 | 0.00 | 0.00 | 0.00 | 85 | 1003.4 | |
| 20260507103325 | 44 | 0.0 | 0.0 | 0.00 | 0.00 | 0.00 | 85 | 1003.4 | |
| 20260507102830 | 44 | 0.0 | 0.0 | 0.00 | 0.00 | 0.00 | 85 | 1003.5 | |
| 20260507102323 | 44 | 0.0 | 0.0 | 0.00 | 0.00 | 0.00 | 85 | 1003.5 | |
| 20260507101848 | 44 | 0.0 | 0.0 | 0.00 | 0.00 | 0.00 | 84 | 1003.5 | |
| 20260507101312 | 44 | 0.0 | 0.0 | 0.00 | 0.00 | 0.00 | 84 | 1003.5 | |
| 20260507100845 | 44 | 0.0 | 0.0 | 0.00 | 0.00 | 0.00 | 83 | 1003.5 | |
| 20260507100330 | 44 | 0.0 | 0.0 | 0.00 | 0.00 | 0.00 | 83 | 1003.5 | |
| 20260507095823 | 44 | 0.0 | 0.0 | 0.00 | 0.00 | 0.00 | 83 | 1003.6 | |
| 20260507095347 | 44 | 0.0 | 0.0 | 0.00 | 0.00 | 0.00 | 83 | 1003.6 | |
| 20260507094812 | 44 | 0.0 | 0.0 | 0.00 | 0.00 | 0.00 | 83 | 1003.6 | |
| 20260507094325 | 44 | 0.0 | 0.0 | 0.00 | 0.00 | 0.00 | 83 | 1003.8 | |
| 20260507093851 | 44 | 0.0 | 0.0 | 0.00 | 0.00 | 0.00 | 83 | 1003.8 | |
| 20260507093315 | 45 | 0.0 | 0.0 | 0.00 | 0.00 | 0.00 | 83 | 1003.8 | |
| 20260507092828 | 45 | 0.0 | 0.0 | 0.00 | 0.00 | 0.00 | 83 | 1003.7 | |
| 20260507092339 | 45 | 0.0 | 0.0 | 0.00 | 0.00 | 0.00 | 83 | 1003.7 | |
| 20260507091823 | 45 | 0.0 | 0.0 | 0.00 | 0.00 | 0.00 | 83 | 1003.7 | |
| 20260507091328 | 45 | 0.0 | 0.0 | 0.00 | 0.00 | 0.00 | 83 | 1003.5 | |
| 20260507090812 | 45 | 0.0 | 0.0 | 0.00 | 0.00 | 0.00 | 83 | 1003.5 | |
| 20260507090325 | 45 | 0.0 | 0.0 | 0.00 | 0.00 | 0.00 | 83 | 1003.5 | |
| 20260507085811 | 45 | 0.0 | 0.0 | 0.00 | 0.00 | 0.00 | 83 | 1003.4 | |
| 20260507085317 | 45 | 0.0 | 0.0 | 0.00 | 0.00 | 0.00 | 82 | 1003.4 | |
| 20260507084828 | 45 | 0.0 | 0.0 | 0.00 | 0.00 | 0.00 | 82 | 1003.4 | |
| 20260507084315 | 45 | 0.0 | 0.0 | 0.00 | 0.00 | 0.00 | 82 | 1003.4 | |
| 20260507083821 | 45 | 0.0 | 0.0 | 0.00 | 0.00 | 0.00 | 82 | 1003.4 | |
| 20260507083331 | 45 | 0.0 | 0.0 | 0.00 | 0.00 | 0.00 | 83 | 1003.4 | |
| 20260507082837 | 45 | 0.0 | 0.0 | 0.00 | 0.00 | 0.00 | 84 | 1003.4 | |
| 20260507082328 | 45 | 0.0 | 0.0 | 0.00 | 0.00 | 0.00 | 85 | 1003.4 | |
| 20260507081812 | 44 | 0.0 | 0.0 | 0.00 | 0.00 | 0.00 | 86 | 1003.4 | |
| 20260507081319 | 44 | 0.0 | 0.0 | 0.00 | 0.00 | 0.00 | 87 | 1003.4 | |
| 20260507080844 | 44 | 0.0 | 0.0 | 0.00 | 0.00 | 0.00 | 88 | 1003.4 | |
| 20260507080336 | 44 | 0.0 | 0.0 | 0.00 | 0.00 | 0.00 | 87 | 1003.4 | |
| 20260507075842 | 44 | 0.0 | 0.0 | 0.00 | 0.00 | 0.00 | 87 | 1003.4 | |
| 20260507075327 | 44 | 0.0 | 0.0 | 0.00 | 0.00 | 0.00 | 87 | 1003.4 | |
| 20260507074820 | 44 | 0.0 | 0.0 | 0.00 | 0.00 | 0.00 | 87 | 1003.4 | |
| 20260507074324 | 44 | 0.0 | 0.0 | 0.00 | 0.00 | 0.00 | 86 | 1003.8 | |
| 20260507073837 | 45 | 0.0 | 0.0 | 0.00 | 0.00 | 0.00 | 86 | 1003.8 | |
| 20260507073321 | 45 | 0.0 | 0.0 | 0.00 | 0.00 | 0.00 | 87 | 1003.8 | |
| 20260507072827 | 45 | 0.0 | 0.0 | 0.00 | 0.00 | 0.00 | 86 | 1003.9 | |
| 20260507072313 | 45 | 0.0 | 0.0 | 0.00 | 0.00 | 0.00 | 86 | 1003.9 | |
| 20260507071826 | 45 | 0.0 | 0.0 | 0.00 | 0.00 | 0.00 | 87 | 1003.9 | |
| 20260507071351 | 45 | 0.0 | 0.0 | 0.00 | 0.00 | 0.00 | 87 | 1004.0 | |
| 20260507070842 | 45 | 0.0 | 0.0 | 0.00 | 0.00 | 0.00 | 88 | 1004.0 | |
| 20260507070348 | 45 | 0.0 | 0.0 | 0.00 | 0.00 | 0.00 | 88 | 1004.0 | |
| 20260507065819 | 45 | 0.0 | 0.0 | 0.00 | 0.00 | 0.00 | 89 | 1004.1 | |
| 20260507065324 | 45 | 0.0 | 0.0 | 0.00 | 0.00 | 0.00 | 90 | 1004.1 | |
| 20260507064836 | 44 | 0.0 | 0.0 | 0.00 | 0.00 | 0.00 | 90 | 1004.1 | |
| 20260507064322 | 44 | 0.0 | 0.0 | 0.00 | 0.00 | 0.00 | 90 | 1004.4 | |
| 20260507063836 | 44 | 0.0 | 0.0 | 0.00 | 0.00 | 0.00 | 90 | 1004.4 | |
| 20260507063320 | 44 | 0.0 | 0.0 | 0.00 | 0.00 | 0.00 | 90 | 1004.4 | |
| 20260507062827 | 44 | 0.0 | 0.0 | 0.00 | 0.00 | 0.00 | 90 | 1004.3 | |
| 20260507062333 | 44 | 0.0 | 0.0 | 0.00 | 0.00 | 0.00 | 90 | 1004.3 | |
| 20260507061822 | 43 | 0.0 | 0.0 | 0.00 | 0.00 | 0.00 | 90 | 1004.3 | |
| 20260507061327 | 43 | 0.0 | 0.0 | 0.00 | 0.00 | 0.00 | 90 | 1004.4 | |
| 20260507060819 | 43 | 0.0 | 0.0 | 0.00 | 0.00 | 0.00 | 90 | 1004.4 | |
| 20260507060322 | 43 | 0.0 | 0.0 | 0.00 | 0.00 | 0.00 | 89 | 1004.4 | |
| 20260507055849 | 43 | 0.0 | 0.0 | 0.00 | 0.00 | 0.00 | 89 | 1004.4 | |
| 20260507055314 | 43 | 0.0 | 0.0 | 0.00 | 0.00 | 0.00 | 89 | 1004.4 | |
| 20260507054820 | 43 | 0.0 | 0.0 | 0.00 | 0.00 | 0.00 | 88 | 1004.4 | |
| 20260507054324 | 43 | 0.0 | 0.0 | 0.00 | 0.00 | 0.00 | 88 | 1004.4 | |
| 20260507053816 | 43 | 0.0 | 0.0 | 0.00 | 0.00 | 0.00 | 88 | 1004.4 | |
| 20260507053320 | 43 | 0.0 | 0.0 | 0.00 | 0.00 | 0.00 | 88 | 1004.4 | |
| 20260507052825 | 43 | 0.0 | 0.0 | 0.00 | 0.00 | 0.00 | 88 | 1004.2 | |
| 20260507052337 | 43 | 0.0 | 0.0 | 0.00 | 0.00 | 0.00 | 88 | 1004.2 | |
| 20260507051822 | 43 | 0.0 | 0.0 | 0.00 | 0.00 | 0.00 | 87 | 1004.2 | |
| 20260507051329 | 43 | 0.0 | 0.0 | 0.00 | 0.00 | 0.00 | 86 | 1004.1 | |
| 20260507050819 | 44 | 0.0 | 0.0 | 0.00 | 0.00 | 0.00 | 87 | 1004.1 | |
| 20260507050319 | 44 | 0.0 | 0.0 | 0.00 | 0.00 | 0.00 | 87 | 1004.1 | |
| 20260507045851 | 44 | 0.0 | 0.0 | 0.00 | 0.00 | 0.01 | 86 | 1004.4 | |
| 20260507045317 | 45 | 0.0 | 0.0 | 0.00 | 0.00 | 0.01 | 86 | 1004.4 | |
| 20260507044822 | 45 | 0.0 | 0.0 | 0.00 | 0.00 | 0.01 | 86 | 1004.4 | |
| 20260507044316 | 45 | 0.0 | 0.0 | 0.00 | 0.00 | 0.01 | 85 | 1004.4 | |
| 20260507043821 | 44 | 0.0 | 0.0 | 0.00 | 0.00 | 0.01 | 84 | 1004.4 | |
| 20260507043325 | 44 | 0.0 | 0.0 | 0.00 | 0.00 | 0.01 | 84 | 1004.4 | |
| 20260507042838 | 45 | 0.0 | 0.0 | 0.00 | 0.00 | 0.01 | 87 | 1004.4 | |
| 20260507042324 | 45 | 0.0 | 0.0 | 0.00 | 0.00 | 0.01 | 86 | 1004.4 | |
| 20260507041831 | 45 | 0.0 | 0.0 | 0.00 | 0.00 | 0.01 | 86 | 1004.4 | |
| 20260507041316 | 45 | 0.0 | 0.0 | 0.00 | 0.00 | 0.01 | 87 | 1004.4 | |
| 20260507040829 | 45 | 0.0 | 0.0 | 0.00 | 0.00 | 0.01 | 87 | 1004.4 | |
| 20260507040315 | 45 | 0.0 | 0.0 | 0.00 | 0.00 | 0.01 | 86 | 1004.4 | |
| 20260507035819 | 45 | 0.0 | 0.0 | 0.00 | 0.00 | 0.01 | 85 | 1004.5 | |
| 20260507035326 | 45 | 0.0 | 0.0 | 0.00 | 0.00 | 0.01 | 85 | 1004.5 | |
| 20260507034837 | 45 | 0.0 | 0.0 | 0.00 | 0.00 | 0.01 | 85 | 1004.5 | |
| 20260507034324 | 45 | 0.0 | 0.0 | 0.00 | 0.00 | 0.01 | 85 | 1004.5 | |
| 20260507033830 | 45 | 0.0 | 0.0 | 0.00 | 0.00 | 0.01 | 84 | 1004.5 | |
| 20260507033316 | 45 | 0.0 | 0.0 | 0.00 | 0.00 | 0.01 | 83 | 1004.5 | |
| 20260507032826 | 45 | 0.0 | 0.0 | 0.00 | 0.00 | 0.01 | 82 | 1004.5 | |
| 20260507032312 | 46 | 0.0 | 0.0 | 0.00 | 0.00 | 0.01 | 82 | 1004.5 | |
| 20260507031818 | 46 | 0.0 | 0.0 | 0.00 | 0.00 | 0.01 | 82 | 1004.5 | |
| 20260507031329 | 46 | 0.0 | 0.0 | 0.00 | 0.00 | 0.01 | 81 | 1004.4 | |
| 20260507030816 | 47 | 0.0 | 0.0 | 0.00 | 0.00 | 0.01 | 81 | 1004.4 | |
| 20260507030319 | 47 | 0.0 | 0.0 | 0.00 | 0.00 | 0.01 | 81 | 1004.4 | |
| 20260507025851 | 47 | 0.0 | 0.0 | 0.00 | 0.00 | 0.01 | 80 | 1004.4 | |
| 20260507025315 | 47 | 0.0 | 0.0 | 0.00 | 0.00 | 0.01 | 80 | 1004.4 | |
| 20260507024828 | 48 | 0.0 | 0.0 | 0.00 | 0.00 | 0.01 | 80 | 1004.4 | |
| 20260507024353 | 48 | 0.0 | 0.0 | 0.00 | 0.00 | 0.01 | 79 | 1004.4 | |
| 20260507023817 | 48 | 0.0 | 0.0 | 0.00 | 0.00 | 0.01 | 78 | 1004.4 | |
| 20260507023328 | 49 | 0.0 | 0.0 | 0.00 | 0.00 | 0.01 | 77 | 1004.4 | |
| 20260507022814 | 49 | 0.0 | 0.0 | 0.00 | 0.00 | 0.01 | 74 | 1004.2 | |
| 20260507022321 | 49 | 0.0 | 0.0 | 0.00 | 0.00 | 0.01 | 72 | 1004.2 | |
| 20260507021831 | 49 | 0.0 | 0.0 | 0.00 | 0.00 | 0.01 | 68 | 1004.2 | |
| 20260507021316 | 49 | 0.0 | 0.0 | 0.00 | 0.00 | 0.01 | 69 | 1003.9 | |
| 20260507020822 | 49 | 0.0 | 0.0 | 0.00 | 0.00 | 0.01 | 67 | 1003.9 | |
| 20260507020334 | 50 | 0.0 | 0.0 | 0.00 | 0.00 | 0.01 | 70 | 1003.9 | |
| 20260507015820 | 50 | 0.0 | 0.0 | 0.00 | 0.00 | 0.01 | 70 | 1003.8 | |
| 20260507015326 | 51 | 0.0 | 0.0 | 0.00 | 0.00 | 0.01 | 72 | 1003.8 | |
| 20260507014815 | 51 | 0.0 | 0.0 | 0.00 | 0.00 | 0.01 | 65 | 1003.8 | |
| 20260507014327 | 52 | 0.0 | 0.0 | 0.00 | 0.00 | 0.01 | 67 | 1003.7 | |
| 20260507013812 | 52 | 0.0 | 0.0 | 0.00 | 0.00 | 0.01 | 58 | 1003.7 | |
| 20260507013317 | 53 | 0.0 | 0.0 | 0.00 | 0.00 | 0.01 | 57 | 1003.7 | |
| 20260507012824 | 53 | 0.0 | 0.0 | 0.00 | 0.00 | 0.01 | 54 | 1003.6 | |
| 20260507012338 | 54 | 0.0 | 0.0 | 0.00 | 0.00 | 0.01 | 57 | 1003.6 | |
| 20260507011821 | 54 | 0.0 | 0.0 | 0.00 | 0.00 | 0.01 | 55 | 1003.6 | |
| 20260507011331 | 55 | 0.0 | 0.0 | 0.00 | 0.00 | 0.01 | 56 | 1003.5 | |
| 20260507010818 | 56 | 0.0 | 0.0 | 0.00 | 0.00 | 0.01 | 54 | 1003.5 | |
| 20260507010323 | 56 | 0.0 | 0.0 | 0.00 | 0.00 | 0.01 | 53 | 1003.5 | |
| 20260507005817 | 57 | 0.0 | 0.0 | 0.00 | 0.00 | 0.01 | 53 | 1003.4 | |
| 20260507005322 | 58 | 0.0 | 0.0 | 0.00 | 0.00 | 0.01 | 50 | 1003.4 | |
| 20260507004827 | 59 | 0.0 | 0.0 | 0.00 | 0.00 | 0.01 | 50 | 1003.4 | |
| 20260507004340 | 59 | 0.0 | 0.0 | 0.00 | 0.00 | 0.01 | 45 | 1003.4 | |
| 20260507003824 | 60 | 0.0 | 0.0 | 0.00 | 0.00 | 0.01 | 44 | 1003.4 | |
| 20260507003337 | 60 | 0.0 | 0.0 | 0.00 | 0.00 | 0.01 | 43 | 1003.4 | |
| 20260507002840 | 61 | 0.0 | 0.0 | 0.00 | 0.00 | 0.01 | 45 | 1003.5 | |
| 20260507002351 | 62 | 0.0 | 0.0 | 0.00 | 0.00 | 0.01 | 48 | 1003.5 | |
| 20260507001816 | 62 | 0.0 | 0.0 | 0.00 | 0.00 | 0.01 | 42 | 1003.5 | |
| 20260507001321 | 62 | 0.0 | 0.0 | 0.00 | 0.00 | 0.01 | 43 | 1003.4 | |
| 20260507000814 | 62 | 0.0 | 0.0 | 0.00 | 0.00 | 0.01 | 42 | 1003.4 | |
| 20260507000321 | 62 | 0.0 | 0.0 | 0.00 | 0.00 | 0.01 | 42 | 1003.4 | |
| 20260506235825 | 62 | 0.0 | 0.0 | 0.00 | 0.00 | 0.01 | 41 | 1003.3 | |
| 20260506235336 | 62 | 0.0 | 0.0 | 0.00 | 0.00 | 0.01 | 44 | 1003.3 | |
| 20260506234821 | 62 | 0.0 | 0.0 | 0.00 | 0.00 | 0.01 | 44 | 1003.3 | |
| 20260506234328 | 62 | 0.0 | 0.0 | 0.00 | 0.00 | 0.01 | 40 | 1003.4 | |
| 20260506233813 | 62 | 0.0 | 0.0 | 0.00 | 0.00 | 0.01 | 44 | 1003.4 | |
| 20260506233325 | 62 | 0.0 | 0.0 | 0.00 | 0.00 | 0.01 | 43 | 1003.4 | |
| 20260506232832 | 62 | 0.0 | 0.0 | 0.00 | 0.00 | 0.01 | 41 | 1003.4 | |
| 20260506232317 | 62 | 0.0 | 0.0 | 0.00 | 0.00 | 0.01 | 42 | 1003.4 | |
| 20260506231823 | 62 | 0.0 | 0.0 | 0.00 | 0.00 | 0.01 | 39 | 1003.4 | |
| 20260506231335 | 62 | 0.0 | 0.0 | 0.00 | 0.00 | 0.01 | 42 | 1003.4 | |
| 20260506230819 | 62 | 0.0 | 0.0 | 0.00 | 0.00 | 0.01 | 39 | 1003.4 | |
| 20260506230330 | 62 | 0.0 | 0.0 | 0.00 | 0.00 | 0.01 | 42 | 1003.4 | |
| 20260506225815 | 62 | 0.0 | 0.0 | 0.00 | 0.00 | 0.01 | 43 | 1003.5 | |
| 20260506225321 | 62 | 0.0 | 0.0 | 0.00 | 0.00 | 0.01 | 44 | 1003.5 | |
| 20260506224832 | 62 | 0.0 | 0.0 | 0.00 | 0.00 | 0.01 | 41 | 1003.5 | |
| 20260506224317 | 62 | 0.0 | 0.0 | 0.00 | 0.00 | 0.01 | 41 | 1003.5 | |
| 20260506223822 | 62 | 0.0 | 0.0 | 0.00 | 0.00 | 0.01 | 42 | 1003.5 | |
| 20260506223331 | 62 | 0.0 | 0.0 | 0.00 | 0.00 | 0.01 | 44 | 1003.5 | |
| 20260506222837 | 62 | 0.0 | 0.0 | 0.00 | 0.00 | 0.01 | 37 | 1003.4 | |
| 20260506222323 | 62 | 0.0 | 0.0 | 0.00 | 0.00 | 0.01 | 39 | 1003.4 | |
| 20260506221834 | 62 | 0.0 | 0.0 | 0.00 | 0.00 | 0.01 | 42 | 1003.4 | |
| 20260506221320 | 63 | 0.0 | 0.0 | 0.00 | 0.00 | 0.01 | 42 | 1003.5 | |
| 20260506220827 | 63 | 0.0 | 0.0 | 0.00 | 0.00 | 0.01 | 42 | 1003.5 | |
| 20260506220332 | 62 | 0.0 | 0.0 | 0.00 | 0.00 | 0.01 | 44 | 1003.5 | |
| 20260506215822 | 62 | 0.0 | 0.0 | 0.00 | 0.00 | 0.01 | 41 | 1003.4 | |
| 20260506215354 | 62 | 0.0 | 0.0 | 0.00 | 0.00 | 0.01 | 40 | 1003.4 | |
| 20260506214819 | 62 | 0.0 | 0.0 | 0.00 | 0.00 | 0.01 | 41 | 1003.4 | |
| 20260506214324 | 62 | 0.0 | 0.0 | 0.00 | 0.00 | 0.01 | 45 | 1003.5 | |
| 20260506213834 | 62 | 0.0 | 0.0 | 0.00 | 0.00 | 0.01 | 40 | 1003.5 | |
| 20260506213317 | 63 | 0.0 | 0.0 | 0.00 | 0.00 | 0.01 | 39 | 1003.5 | |
| 20260506212850 | 63 | 0.0 | 0.0 | 0.00 | 0.00 | 0.01 | 45 | 1003.7 | |
| 20260506212314 | 62 | 0.0 | 0.0 | 0.00 | 0.00 | 0.01 | 48 | 1003.7 | |
| 20260506211846 | 61 | 0.0 | 0.0 | 0.00 | 0.00 | 0.01 | 42 | 1003.7 | |
| 20260506211331 | 62 | 0.0 | 0.0 | 0.00 | 0.00 | 0.01 | 38 | 1003.9 | |
| 20260506210821 | 62 | 0.0 | 0.0 | 0.00 | 0.00 | 0.01 | 45 | 1003.9 | |
| 20260506210346 | 62 | 0.0 | 0.0 | 0.00 | 0.00 | 0.01 | 42 | 1003.9 | |
| 20260506205838 | 62 | 0.0 | 0.0 | 0.00 | 0.00 | 0.01 | 42 | 1003.9 | |
| 20260506205324 | 61 | 0.0 | 0.0 | 0.00 | 0.00 | 0.01 | 42 | 1003.9 | |
| 20260506204829 | 61 | 0.0 | 0.0 | 0.00 | 0.00 | 0.01 | 44 | 1003.9 | |
| 20260506204341 | 62 | 0.0 | 0.0 | 0.00 | 0.00 | 0.01 | 44 | 1004.0 | |
| 20260506203825 | 62 | 0.0 | 0.0 | 0.00 | 0.00 | 0.01 | 46 | 1004.0 | |
| 20260506203337 | 61 | 0.0 | 0.0 | 0.00 | 0.00 | 0.01 | 47 | 1004.0 | |
| 20260506202822 | 61 | 0.0 | 0.0 | 0.00 | 0.00 | 0.01 | 48 | 1004.5 | |
| 20260506202334 | 61 | 0.0 | 0.0 | 0.00 | 0.00 | 0.01 | 43 | 1004.5 | |
| 20260506201819 | 61 | 0.0 | 0.0 | 0.00 | 0.00 | 0.01 | 47 | 1004.5 | |
| 20260506201324 | 61 | 0.0 | 0.0 | 0.00 | 0.00 | 0.01 | 45 | 1004.5 | |
| 20260506200830 | 61 | 0.0 | 0.0 | 0.00 | 0.00 | 0.01 | 44 | 1004.5 | |
| 20260506200315 | 61 | 0.0 | 0.0 | 0.00 | 0.00 | 0.00 | 49 | 1004.5 | |
| 20260506195827 | 61 | 0.0 | 0.0 | 0.00 | 0.00 | 0.00 | 43 | 1004.5 | |
| 20260506195329 | 61 | 0.0 | 0.0 | 0.00 | 0.00 | 0.00 | 46 | 1004.5 | |
| 20260506194816 | 61 | 0.0 | 0.0 | 0.00 | 0.00 | 0.00 | 53 | 1004.5 | |
| 20260506194328 | 60 | 0.0 | 0.0 | 0.00 | 0.00 | 0.00 | 49 | 1004.8 | |
| 20260506193835 | 61 | 0.0 | 0.0 | 0.00 | 0.00 | 0.00 | 44 | 1004.8 | |
| 20260506193346 | 60 | 0.0 | 0.0 | 0.00 | 0.00 | 0.00 | 44 | 1004.8 | |
| 20260506192832 | 61 | 0.0 | 0.0 | 0.00 | 0.00 | 0.00 | 44 | 1004.8 | |
| 20260506192312 | 62 | 0.0 | 0.0 | 0.00 | 0.00 | 0.00 | 50 | 1004.8 | |
| 20260506191825 | 61 | 0.0 | 0.0 | 0.00 | 0.00 | 0.00 | 48 | 1004.8 | |
| 20260506191331 | 61 | 0.0 | 0.0 | 0.00 | 0.00 | 0.00 | 48 | 1004.9 | |
| 20260506190816 | 61 | 0.0 | 0.0 | 0.00 | 0.00 | 0.00 | 47 | 1004.9 | |
| 20260506190322 | 61 | 0.0 | 0.0 | 0.00 | 0.00 | 0.00 | 49 | 1004.9 | |
| 20260506185833 | 61 | 0.0 | 0.0 | 0.00 | 0.00 | 0.00 | 44 | 1004.6 | |
| 20260506185323 | 61 | 0.0 | 0.0 | 0.00 | 0.00 | 0.00 | 45 | 1004.6 | |
| 20260506184827 | 60 | 0.0 | 0.0 | 0.00 | 0.00 | 0.00 | 48 | 1004.6 | |
| 20260506184338 | 60 | 0.0 | 0.0 | 0.00 | 0.00 | 0.00 | 51 | 1004.7 | |
| 20260506183823 | 61 | 0.0 | 0.0 | 0.00 | 0.00 | 0.00 | 46 | 1004.7 | |
| 20260506183336 | 61 | 0.0 | 0.0 | 0.00 | 0.00 | 0.00 | 47 | 1004.7 | |
| 20260506182842 | 61 | 0.0 | 0.0 | 0.00 | 0.00 | 0.00 | 51 | 1005.0 | |
| 20260506182327 | 61 | 0.0 | 0.0 | 0.00 | 0.00 | 0.00 | 49 | 1005.0 | |
| 20260506181813 | 61 | 0.0 | 0.0 | 0.00 | 0.00 | 0.00 | 46 | 1005.0 | |
| 20260506181326 | 61 | 0.0 | 0.0 | 0.00 | 0.00 | 0.00 | 43 | 1005.0 | |
| 20260506180830 | 61 | 0.0 | 0.0 | 0.00 | 0.00 | 0.00 | 49 | 1005.0 | |
| 20260506180317 | 60 | 0.0 | 0.0 | 0.00 | 0.00 | 0.00 | 49 | 1005.0 | |
| 20260506175829 | 60 | 0.0 | 0.0 | 0.00 | 0.00 | 0.00 | 46 | 1005.0 | |
| 20260506175315 | 60 | 0.0 | 0.0 | 0.00 | 0.00 | 0.00 | 45 | 1005.0 | |
| 20260506174822 | 60 | 0.0 | 0.0 | 0.00 | 0.00 | 0.00 | 42 | 1005.0 | |
| 20260506174332 | 60 | 0.0 | 0.0 | 0.00 | 0.00 | 0.00 | 55 | 1005.2 | |
| 20260506173836 | 60 | 0.0 | 0.0 | 0.00 | 0.00 | 0.00 | 53 | 1005.2 | |
| 20260506173325 | 60 | 0.0 | 0.0 | 0.00 | 0.00 | 0.00 | 48 | 1005.2 | |
| 20260506172829 | 59 | 0.0 | 0.0 | 0.00 | 0.00 | 0.00 | 53 | 1005.1 | |
| 20260506172315 | 59 | 0.0 | 0.0 | 0.00 | 0.00 | 0.00 | 57 | 1005.1 | |
| 20260506171827 | 59 | 0.0 | 0.0 | 0.00 | 0.00 | 0.00 | 55 | 1005.1 | |
| 20260506171359 | 59 | 0.0 | 0.0 | 0.00 | 0.00 | 0.00 | 50 | 1004.9 | |
| 20260506170824 | 59 | 0.0 | 0.0 | 0.00 | 0.00 | 0.00 | 51 | 1004.9 | |
| 20260506170330 | 59 | 0.0 | 0.0 | 0.00 | 0.00 | 0.00 | 53 | 1004.9 | |
| 20260506165834 | 59 | 0.0 | 0.0 | 0.00 | 0.00 | 0.00 | 55 | 1004.5 | |
| 20260506165325 | 58 | 0.0 | 0.0 | 0.00 | 0.00 | 0.00 | 51 | 1004.5 | |
| 20260506164830 | 58 | 0.0 | 0.0 | 0.00 | 0.00 | 0.00 | 53 | 1004.5 | |
| 20260506164342 | 58 | 0.0 | 0.0 | 0.00 | 0.00 | 0.00 | 56 | 1004.7 | |
| 20260506163846 | 57 | 0.0 | 0.0 | 0.00 | 0.00 | 0.00 | 59 | 1004.7 | |
| 20260506163338 | 57 | 0.0 | 0.0 | 0.00 | 0.00 | 0.00 | 57 | 1004.7 | |
| 20260506162822 | 58 | 0.0 | 0.0 | 0.00 | 0.00 | 0.00 | 55 | 1004.5 | |
| 20260506162333 | 58 | 0.0 | 0.0 | 0.00 | 0.00 | 0.00 | 57 | 1004.5 | |
| 20260506161820 | 57 | 0.0 | 0.0 | 0.00 | 0.00 | 0.00 | 60 | 1004.5 | |
| 20260506161320 | 57 | 0.0 | 0.0 | 0.00 | 0.00 | 0.00 | 61 | 1004.3 | |
| 20260506160827 | 57 | 0.0 | 0.0 | 0.00 | 0.00 | 0.00 | 63 | 1004.3 | |
| 20260506160337 | 57 | 0.0 | 0.0 | 0.00 | 0.00 | 0.00 | 62 | 1004.3 | |
| 20260506155818 | 57 | 0.0 | 0.0 | 0.00 | 0.00 | 0.00 | 64 | 1004.1 | |
| 20260506155330 | 57 | 0.0 | 0.0 | 0.00 | 0.00 | 0.00 | 64 | 1004.1 | |
| 20260506154815 | 56 | 0.0 | 0.0 | 0.00 | 0.00 | 0.00 | 70 | 1004.1 | |
| 20260506154320 | 56 | 0.0 | 0.0 | 0.00 | 0.00 | 0.00 | 68 | 1004.1 | |
| 20260506153827 | 55 | 0.0 | 0.0 | 0.00 | 0.00 | 0.00 | 71 | 1004.1 | |
| 20260506153314 | 55 | 0.0 | 0.0 | 0.00 | 0.00 | 0.00 | 69 | 1004.1 | |
| 20260506152824 | 55 | 0.0 | 0.0 | 0.00 | 0.00 | 0.00 | 69 | 1004.5 | |
| 20260506152328 | 54 | 0.0 | 0.0 | 0.00 | 0.00 | 0.00 | 67 | 1004.5 | |
| 20260506151814 | 54 | 0.0 | 0.0 | 0.00 | 0.00 | 0.00 | 68 | 1004.5 | |
| 20260506151326 | 53 | 0.0 | 0.0 | 0.00 | 0.00 | 0.00 | 71 | 1004.5 | |
| 20260506150811 | 53 | 0.0 | 0.0 | 0.00 | 0.00 | 0.00 | 70 | 1004.5 | |
| 20260506150317 | 53 | 0.0 | 0.0 | 0.00 | 0.00 | 0.00 | 69 | 1004.5 | |
| 20260506145822 | 53 | 0.0 | 0.0 | 0.00 | 0.00 | 0.00 | 69 | 1004.4 | |
| 20260506145335 | 53 | 0.0 | 0.0 | 0.00 | 0.00 | 0.00 | 68 | 1004.4 |